Weather History for Chesapeake, VA

Change the Weather History Date:

Tuesday, December 3, 2013

  Actual Average (KORF) Record (KORF)
Temperature  
Mean Temperature 45 °F 48 °F  
Max Temperature 60 °F 56 °F 80 °F (1991)
Min Temperature 30 °F 39 °F 21 °F (1886)
Degree Days  
Heating Degree Days 20 18  
Month to date heating degree days 52  
Since 1 July heating degree days 582  
Cooling Degree Days 0 0  
Month to date cooling degree days 0  
Year to date cooling degree days 1628  
Moisture  
Dew Point 37 °F    
Average Humidity 78    
Maximum Humidity 100    
Minimum Humidity 42    
Precipitation  
Precipitation 0.00 in 0.10 in 1.43 in (1948)
Month to date precipitation 0.32  
Year to date precipitation 43.59  
Snow  
Snow 0.00 in 0.00 in 3.00 in (1896)
Month to date snowfall 0.0  
Since 1 July snowfall T  
Snow Depth -    
Sea Level Pressure  
Sea Level Pressure 29.96 in    
Wind  
Wind Speed 1 mph (SSW)    
Max Wind Speed 5 mph    
Max Gust Speed -    
Visibility 7 miles    
Events Fog    
T = Trace of Precipitation, MM = Missing Value Source: NWS Daily Summary

Daily Weather History Graph

Daily Weather History Graph

Search for Another Location

Airport:

Trip Planner

Search our weather history database for the weather conditions in past years. The results will help you decide how hot, cold, wet, or windy it might be!

Date:

Astronomy

Dec. 03, 2013 Rise Set
Actual Time 7:01 AM EST 4:49 PM EST
Civil Twilight 6:32 AM EST 5:17 PM EST
Nautical Twilight 6:00 AM EST 5:49 PM EST
Astronomical Twilight 5:29 AM EST 6:21 PM EST
Moon 7:28 AM EST (12/3) 5:49 PM EST (12/3)
Length of Visible Light 10h 45m
Length of Day
9h 48m
New Moon, 1% of the Moon is Illuminated
Dec 3
New Moon
Dec 9
First Quarter
Dec 17
Full
Dec 25
Last Quarter
Jan 1
New

Hourly Weather History & Observations

Time (EST) Temp. Windchill Dew Point Humidity Pressure Visibility Wind Dir Wind Speed Gust Speed Precip Events Conditions
12:15 AM 32.0 °F - 32.0 °F 100% 29.87 in 7.0 mi Calm Calm - N/A   Clear
12:35 AM 33.8 °F - 32.0 °F 93% 29.87 in 3.0 mi Calm Calm - N/A   Clear
12:55 AM 32.0 °F - 32.0 °F 100% 29.88 in 0.2 mi Calm Calm - N/A Fog Fog
1:15 AM 30.2 °F - 30.2 °F 100% 29.88 in 0.2 mi Calm Calm - N/A Fog Light Freezing Fog
1:35 AM 30.2 °F - 30.2 °F 100% 29.88 in 0.2 mi Calm Calm - N/A Fog Light Freezing Fog
1:55 AM 32.0 °F - 32.0 °F 100% 29.88 in 0.2 mi Calm Calm - N/A Fog Fog
2:15 AM 32.0 °F - 32.0 °F 100% 29.88 in 0.2 mi Calm Calm - N/A Fog Fog
2:35 AM 30.2 °F - 30.2 °F 100% 29.88 in 0.2 mi Calm Calm - N/A Fog Light Freezing Fog
2:55 AM 30.2 °F - 30.2 °F 100% 29.89 in 0.2 mi Calm Calm - N/A Fog Light Freezing Fog
3:15 AM 32.0 °F - 32.0 °F 100% 29.89 in 0.2 mi Calm Calm - N/A Fog Fog
3:35 AM 30.2 °F - 30.2 °F 100% 29.89 in 0.2 mi Calm Calm - N/A Fog Light Freezing Fog
3:55 AM 30.2 °F - 30.2 °F 100% 29.89 in 0.2 mi Calm Calm - N/A Fog Light Freezing Fog
4:15 AM 30.2 °F - 30.2 °F 100% 29.89 in 0.2 mi Calm Calm - N/A Fog Light Freezing Fog
4:35 AM 30.2 °F - 30.2 °F 100% 29.90 in 0.5 mi Calm Calm - N/A Fog Light Freezing Fog
4:55 AM 30.2 °F - 30.2 °F 100% 29.91 in 3.0 mi Calm Calm - N/A   Overcast
5:15 AM 30.2 °F - 30.2 °F 100% 29.91 in 3.0 mi Calm Calm - N/A   Scattered Clouds
5:35 AM 30.2 °F - 30.2 °F 100% 29.92 in 0.8 mi Calm Calm - N/A   Mostly Cloudy
5:55 AM 32.0 °F - 32.0 °F 100% 29.92 in 2.0 mi Calm Calm - N/A   Mostly Cloudy
6:15 AM 30.2 °F - 30.2 °F 100% 29.93 in 0.5 mi Calm Calm - N/A Fog Light Freezing Fog
6:35 AM 30.2 °F - 30.2 °F 100% 29.93 in 0.2 mi Calm Calm - N/A Fog Light Freezing Fog
6:55 AM 32.0 °F - 32.0 °F 100% 29.94 in 4.0 mi Calm Calm - N/A   Scattered Clouds
7:15 AM 30.2 °F - 30.2 °F 100% 29.94 in 4.0 mi Calm Calm - N/A   Clear
7:35 AM 30.2 °F - 30.2 °F 100% 29.95 in 3.0 mi Calm Calm - N/A   Clear
7:55 AM 30.2 °F - 30.2 °F 100% 29.96 in 3.0 mi Calm Calm - N/A   Scattered Clouds
8:15 AM 33.8 °F - 33.8 °F 100% 29.97 in 2.0 mi Calm Calm - N/A   Mostly Cloudy
8:35 AM 37.4 °F - 37.4 °F 100% 29.98 in 2.5 mi Calm Calm - N/A   Clear
8:55 AM 39.2 °F - 39.2 °F 100% 29.98 in 3.0 mi Calm Calm - N/A   Clear
9:15 AM 42.8 °F - 42.8 °F 100% 29.98 in 4.0 mi Calm Calm - N/A   Clear
9:35 AM 44.6 °F - 44.6 °F 100% 29.99 in 7.0 mi Calm Calm - N/A   Scattered Clouds
9:55 AM 46.4 °F - 44.6 °F 93% 29.99 in 10.0 mi Calm Calm - N/A   Mostly Cloudy
10:15 AM 48.2 °F - 44.6 °F 87% 29.99 in 10.0 mi Calm Calm - N/A   Overcast
10:35 AM 50.0 °F - 42.8 °F 76% 29.99 in 10.0 mi Calm Calm - N/A   Overcast
10:55 AM 51.8 °F - 44.6 °F 76% 29.98 in 10.0 mi Calm Calm - N/A   Overcast
11:15 AM 53.6 °F - 44.6 °F 72% 29.98 in 10.0 mi Calm Calm - N/A   Overcast
11:35 AM 53.6 °F - 42.8 °F 67% 29.97 in 10.0 mi Calm Calm - N/A   Overcast
11:55 AM 55.4 °F - 39.2 °F 54% 29.96 in 10.0 mi SSW 3.5 mph - N/A   Mostly Cloudy
12:15 PM 57.2 °F - 37.4 °F 48% 29.96 in 10.0 mi Calm Calm - N/A   Scattered Clouds
12:35 PM 57.2 °F - 37.4 °F 48% 29.95 in 10.0 mi WSW 4.6 mph - N/A   Clear
12:55 PM 59.0 °F - 37.4 °F 45% 29.95 in 10.0 mi Calm Calm - N/A   Clear
1:15 PM 59.0 °F - 37.4 °F 45% 29.94 in 10.0 mi Calm Calm - N/A   Clear
1:35 PM 60.8 °F - 37.4 °F 42% 29.95 in 10.0 mi SW 4.6 mph - N/A   Clear
1:55 PM 60.8 °F - 37.4 °F 42% 29.95 in 10.0 mi SSW 4.6 mph - N/A   Clear
2:15 PM 60.8 °F - 37.4 °F 42% 29.95 in 10.0 mi SW 3.5 mph - N/A   Clear
2:35 PM 60.8 °F - 37.4 °F 42% 29.95 in 10.0 mi Calm Calm - N/A   Clear
2:55 PM 60.8 °F - 37.4 °F 42% 29.95 in 10.0 mi SSW 3.5 mph - N/A   Clear
3:15 PM 60.8 °F - 37.4 °F 42% 29.95 in 10.0 mi Calm Calm - N/A   Clear
3:35 PM 60.8 °F - 39.2 °F 45% 29.96 in 10.0 mi WSW 4.6 mph - N/A   Clear
3:55 PM 60.8 °F - 41.0 °F 48% 29.97 in 10.0 mi Calm Calm - N/A   Clear
4:15 PM 57.2 °F - 41.0 °F 55% 29.98 in 10.0 mi Calm Calm - N/A   Clear
4:35 PM 55.4 °F - 39.2 °F 54% 29.98 in 10.0 mi Calm Calm - N/A   Clear
4:55 PM 53.6 °F - 41.0 °F 62% 29.98 in 10.0 mi South 3.5 mph - N/A   Mostly Cloudy
5:15 PM 51.8 °F - 39.2 °F 62% 29.99 in 10.0 mi Calm Calm - N/A   Scattered Clouds
5:35 PM 50.0 °F - 41.0 °F 71% 30.00 in 10.0 mi Calm Calm - N/A   Mostly Cloudy
5:55 PM 48.2 °F - 41.0 °F 76% 30.01 in 10.0 mi South 3.5 mph - N/A   Overcast
6:15 PM 51.8 °F - 41.0 °F 67% 30.01 in 10.0 mi South 3.5 mph - N/A   Overcast
6:35 PM 51.8 °F - 39.2 °F 62% 30.00 in 10.0 mi Calm Calm - N/A   Scattered Clouds
6:55 PM 50.0 °F - 39.2 °F 66% 30.00 in 10.0 mi Calm Calm - N/A   Scattered Clouds
7:15 PM 46.4 °F 45.2 °F 39.2 °F 76% 30.00 in 10.0 mi SSE 3.5 mph - N/A   Scattered Clouds
7:35 PM 48.2 °F - 39.2 °F 71% 30.01 in 10.0 mi Calm Calm - N/A   Mostly Cloudy
7:55 PM 46.4 °F - 41.0 °F 81% 30.01 in 10.0 mi Calm Calm - N/A   Overcast
8:15 PM 48.2 °F - 42.8 °F 82% 30.01 in 10.0 mi Calm Calm - N/A   Overcast
8:35 PM 48.2 °F - 42.8 °F 82% 30.01 in 10.0 mi Calm Calm - N/A   Overcast
8:55 PM 48.2 °F - 41.0 °F 76% 30.02 in 10.0 mi Calm Calm - N/A   Overcast
9:15 PM 48.2 °F - 39.2 °F 71% 30.01 in 10.0 mi SSE 4.6 mph - N/A   Scattered Clouds
9:35 PM 48.2 °F - 39.2 °F 71% 30.01 in 10.0 mi SSE 3.5 mph - N/A   Clear
9:55 PM 48.2 °F - 39.2 °F 71% 30.02 in 10.0 mi Calm Calm - N/A   Scattered Clouds
10:15 PM 48.2 °F - 39.2 °F 71% 30.01 in 10.0 mi Calm Calm - N/A   Clear
10:35 PM 48.2 °F - 39.2 °F 71% 30.02 in 10.0 mi Calm Calm - N/A   Clear
10:55 PM 46.4 °F - 39.2 °F 76% 30.02 in 10.0 mi Calm Calm - N/A   Clear
11:15 PM 48.2 °F - 39.2 °F 71% 30.03 in 10.0 mi South 3.5 mph - N/A   Scattered Clouds
11:20 PM 48.2 °F - 39.2 °F 71% 30.03 in 10.0 mi South 3.5 mph - N/A   Mostly Cloudy
11:35 PM 48.2 °F - 39.2 °F 71% 30.03 in 10.0 mi Calm Calm - N/A   Overcast
11:55 PM 48.2 °F - 39.2 °F 71% 30.04 in 10.0 mi South 3.5 mph - N/A   Overcast